Wind_Speed
12 12 12 12 10 10 10 10 10 11 12 13 14 14 13 11 9 2 2 3 5 15 14 9 4 2 2 1 2 3 4 5 6 5 8 7 8 5 5 10 3 3 5 22 23
12 13 12 11 11 10 9 9 10 10 11 12 13 12 11 10 4 3 1 7 14 15 11 8 4 2 1 1 0 3 0 4 3 5 8 6 6 7 8 9 7 6 15 23 23
13 13 13 12 10 9 9 9 10 10 11 11 12 10 8 7 7 5 3 8 16 12 6 4 4 3 3 4 2 3 4 6 5 8 3 5 6 2 10 3 5 12 19 20 22
13 13 12 12 11 9 9 9 9 9 10 10 10 8 5 2 3 4 8 15 13 6 4 2 3 4 2 3 3 2 4 4 5 4 4 4 3 4 3 7 8 16 18 19 17
14 15 14 12 10 9 9 9 9 9 8 8 8 7 2 6 5 1 11 18 11 4 8 1 3 5 9 4 1 4 6 6 5 7 5 5 3 2 6 7 15 18 18 16 14
15 15 14 13 11 10 11 10 11 10 7 6 6 4 4 6 2 4 9 13 9 7 4 4 4 6 4 6 5 7 7 8 4 5 4 3 5 3 9 12 17 18 17 15 14
18 16 15 13 12 14 14 13 10 7 5 3 4 2 4 8 4 7 10 7 7 6 5 3 6 8 2 0 5 2 7 8 3 4 2 8 7 6 12 15 16 16 15 14 13
19 18 16 14 14 16 14 5 4 2 1 1 2 2 6 4 4 5 6 5 4 5 6 5 8 5 5 4 4 2 5 9 6 6 3 7 9 4 11 15 16 16 15 14 14
20 18 15 14 16 14 9 2 4 4 1 1 1 6 9 4 5 4 5 3 6 4 3 5 5 2 3 8 5 2 6 8 7 6 1 3 3 6 11 13 14 15 15 14 14
20 19 14 13 15 12 2 2 2 2 1 2 4 5 8 6 4 4 3 1 2 5 5 5 5 6 3 8 1 5 3 5 5 5 3 5 6 10 10 13 12 15 15 15 15
21 21 14 11 9 9 2 3 5 5 3 6 6 3 7 3 3 4 2 4 4 7 11 5 9 9 4 2 2 3 6 2 3 4 6 3 4 3 11 12 13 15 16 16 16
21 21 13 9 3 5 4 1 4 4 7 4 2 3 3 0 6 5 2 6 8 10 6 8 11 5 2 1 4 6 6 6 5 1 6 7 7 3 10 13 14 15 16 17 17
20 20 12 9 1 1 5 4 4 4 4 6 4 5 4 3 4 6 4 3 6 8 12 10 8 2 5 4 8 8 11 6 8 9 11 10 12 5 5 9 12 14 15 17 17
21 18 11 7 3 1 1 5 3 5 6 8 5 4 1 2 5 4 4 1 3 5 5 2 2 3 5 6 7 11 5 9 10 9 8 2 6 5 6 9 13 15 16 17 18
22 16 8 3 4 3 2 6 3 4 5 6 5 2 1 1 6 6 2 3 5 6 6 5 3 4 5 3 4 4 7 8 10 12 14 14 8 7 3 7 10 12 14 15 16
22 15 5 2 4 1 4 2 5 7 4 7 3 5 7 7 5 3 3 7 2 6 8 9 2 5 4 2 3 7 9 10 11 11 14 16 16 11 8 4 5 10 3 8 13
21 11 5 6 2 1 4 6 7 7 5 8 9 5 10 8 8 3 5 4 0 6 6 6 2 3 5 7 6 8 11 8 8 9 11 6 10 9 1 12 9 9 9 11 10
18 2 4 7 3 3 6 8 9 2 9 7 8 7 5 6 5 4 4 7 6 5 2 6 7 2 4 5 7 7 9 7 7 9 3 5 6 6 7 12 8 10 10 11 11
8 2 4 3 6 4 6 11 5 7 10 14 10 10 9 6 3 4 1 2 5 7 4 3 3 2 1 5 5 5 7 8 9 11 8 9 7 4 9 8 8 9 10 13 14
1 5 5 3 4 7 7 6 4 2 8 15 9 5 8 7 8 6 5 3 4 4 5 3 5 3 1 4 6 8 6 6 6 5 8 5 4 9 9 5 8 11 13 14 15
5 5 3 6 3 6 8 4 6 8 5 7 5 7 5 7 3 4 4 5 2 3 4 3 4 8 4 6 5 5 9 8 8 6 8 8 3 9 4 6 12 14 17 17 18
5 4 3 5 6 3 6 6 1 10 4 5 4 5 6 6 4 3 6 3 3 2 1 3 4 7 6 3 6 11 8 10 9 8 8 9 12 5 4 8 15 19 19 18 18
2 2 2 5 5 7 5 8 4 9 8 8 5 2 5 5 3 4 7 6 4 2 0 1 3 7 8 7 6 10 8 7 8 8 13 12 6 5 3 15 15 19 21 20 19
3 4 3 3 3 4 10 10 9 2 6 4 8 7 7 6 1 6 8 7 3 1 3 1 10 11 12 12 6 11 11 11 12 10 13 18 19 19 17 17 19 18 17 19 19
3 3 3 5 4 3 4 7 11 8 3 6 5 7 6 5 6 6 5 7 6 8 5 5 10 11 13 14 15 15 16 17 18 18 20 21 24 21 19 21 18 16 16 19 18
4 2 2 2 1 6 5 5 10 6 9 10 7 8 6 4 3 5 4 4 4 6 7 3 8 8 13 15 15 19 19 19 21 22 24 23 26 21 18 15 14 13 17 19 20
5 1 4 1 3 6 3 5 5 6 3 2 5 7 8 5 2 3 3 2 2 6 7 8 7 6 12 2 9 12 18 19 20 19 20 20 19 18 18 19 19 17 16 20 19
Wind_Direction
358 354 345 336 330 322 322 322 326 328 329 330 333 331 327 322 327 325 78 89 157 153 140 152 148 98 242 302 294 272 213 117 114 141 128 142 127 79 96 135 95 100 143 137 149
358 353 349 340 332 327 323 321 323 326 327 328 333 330 328 328 309 114 61 159 157 153 158 171 197 193 15 327 266 322 33 65 73 101 138 128 154 114 135 139 126 110 112 139 150
1 357 354 345 337 333 327 321 320 324 324 327 331 328 331 328 246 54 215 166 164 148 158 185 234 309 105 289 32 55 38 85 110 105 128 146 138 70 129 165 141 151 146 152 158
1 360 356 347 340 333 325 317 317 320 322 326 328 323 316 253 176 29 164 160 163 189 182 247 250 287 104 53 22 126 60 146 131 136 112 133 137 142 174 40 118 142 150 156 167
2 360 355 349 345 340 332 321 314 313 319 323 326 326 278 200 74 78 151 164 175 195 227 234 311 324 29 72 251 33 85 92 134 128 97 127 194 77 147 105 130 143 155 163 170
1 357 355 351 346 340 328 313 301 297 304 316 326 322 252 140 66 143 157 178 208 224 253 237 326 357 354 45 46 59 62 115 151 115 63 145 198 210 143 143 144 156 168 171 172
359 354 351 349 341 335 327 315 303 275 267 290 317 294 239 81 112 131 145 179 208 230 281 300 300 292 301 68 97 79 100 126 190 184 217 260 180 200 147 161 161 169 175 175 178
358 352 347 343 341 337 336 346 32 90 182 310 348 262 90 115 146 169 173 174 194 232 269 289 281 294 345 119 223 198 255 86 114 184 209 253 91 133 161 174 173 176 178 180 181
357 352 345 341 340 342 344 74 59 50 81 356 290 266 122 126 150 130 186 195 176 202 244 275 250 327 202 259 192 195 102 81 119 179 264 284 106 132 171 188 181 184 184 186 186
355 351 343 342 344 345 10 108 32 38 1 269 254 220 161 121 108 116 146 203 222 179 178 215 209 251 182 292 339 13 60 89 13 77 257 242 261 153 193 193 197 193 191 192 192
352 349 341 344 356 7 119 258 208 171 193 10 58 48 102 104 167 156 149 183 207 224 226 195 239 209 353 95 351 314 306 8 337 92 312 353 301 247 185 205 200 201 195 200 198
350 347 338 339 3 28 46 10 25 3 125 68 36 106 70 331 164 128 240 231 209 208 210 214 241 83 255 270 278 290 288 289 276 273 305 306 314 214 186 202 209 204 204 203 200
347 346 336 332 278 45 51 46 325 208 172 109 85 63 60 258 67 83 272 177 194 185 205 243 79 166 232 226 262 240 284 297 307 313 282 292 271 168 169 193 207 215 212 209 207
344 342 335 332 202 196 142 343 298 203 172 139 146 77 220 207 94 29 10 313 176 164 201 84 82 242 245 258 287 275 53 295 284 289 278 312 281 171 177 187 208 214 213 214 210
340 337 330 304 331 232 56 337 170 232 201 129 102 20 62 325 120 65 12 212 111 135 238 104 155 194 240 0 286 309 323 286 284 270 270 249 245 248 222 235 213 216 216 219 216
338 329 310 259 235 258 316 277 220 233 149 143 153 151 146 140 89 126 116 77 42 99 68 109 118 33 14 218 301 310 274 250 249 250 251 247 259 256 216 232 90 43 174 225 226
337 319 232 190 136 243 302 212 208 250 145 152 151 172 122 127 85 115 114 104 353 190 150 161 121 111 352 246 195 275 259 256 231 219 250 260 227 244 20 81 60 52 43 25 343
336 320 200 195 245 298 234 209 227 56 169 128 144 153 133 143 102 112 155 126 67 305 179 227 175 235 15 360 330 308 305 297 276 274 262 95 240 222 113 96 63 56 38 24 12
345 130 171 193 224 244 232 209 217 175 153 157 164 171 139 138 172 148 90 83 40 10 316 244 182 148 47 319 282 119 244 12 288 247 262 256 197 203 174 101 31 29 20 12 1
337 205 132 158 166 233 226 238 132 122 141 169 180 248 170 159 185 210 188 106 114 34 328 72 270 168 102 258 202 283 7 229 206 263 255 225 239 258 147 24 2 4 6 359 353
235 209 90 170 216 222 218 153 154 144 164 197 164 159 140 150 204 168 142 128 184 105 327 309 265 132 243 207 310 209 225 235 304 280 285 273 245 80 88 359 351 345 351 348 346
283 199 124 183 203 235 203 164 118 146 155 122 111 108 160 153 156 151 167 63 122 297 248 54 294 273 289 56 272 258 282 264 251 215 241 290 277 136 86 350 348 335 334 340 343
300 71 107 224 214 190 136 141 164 168 154 157 128 126 144 139 140 141 136 109 147 232 180 65 238 261 200 179 188 230 213 259 273 285 256 268 244 146 304 326 338 333 329 335 338
273 174 134 214 321 238 174 166 146 76 114 101 119 139 151 153 145 159 158 162 152 219 25 257 266 257 283 336 328 215 232 238 265 269 271 252 270 283 304 323 323 318 322 322 329
330 59 5 180 165 175 215 185 168 158 135 170 168 193 184 170 174 179 166 161 190 140 216 264 266 274 269 278 275 264 263 265 256 259 262 278 290 296 309 308 315 313 314 317 325
342 331 119 53 159 197 165 163 180 140 173 178 221 185 180 196 241 178 205 231 263 164 229 235 281 284 275 264 264 267 264 259 256 260 266 275 277 287 296 313 302 306 313 316 317
0 336 297 150 179 226 118 149 156 163 136 349 206 173 191 104 90 63 66 47 18 276 257 255 278 253 276 11 287 268 257 254 260 261 267 273 293 315 305 305 307 305 307 306 314
Height
809 807 804 802 799 797 795 793 792 790 788 787 785 782 780 777 776 775 773 777 777 777 780 781 782 782 781 777 776 772 776 793 788 785 788 778 783 779 780 789 789 791 791 800 812
809 806 804 801 798 796 794 793 792 790 788 786 784 782 780 777 776 772 776 775 777 778 781 781 779 782 782 776 773 773 775 786 779 779 783 781 778 782 787 791 797 797 798 806 813
809 806 803 801 798 796 794 792 791 789 788 786 784 781 780 778 775 773 775 776 778 780 781 781 780 778 780 776 772 775 786 782 783 779 780 781 782 779 785 792 788 799 802 807 811
810 806 803 800 797 795 793 792 790 788 787 785 783 781 778 779 784 776 775 776 780 782 782 781 775 775 773 784 770 776 781 780 783 781 780 786 782 784 783 788 784 794 803 807 811
808 805 802 800 797 794 792 790 789 788 786 785 783 780 778 773 775 777 776 778 782 783 779 777 778 770 774 773 776 774 780 782 785 782 782 785 788 785 787 785 788 797 804 807 810
808 805 802 799 796 794 791 789 787 786 785 784 782 780 778 777 779 779 780 781 781 781 776 776 772 769 770 772 779 774 778 785 790 788 790 795 791 788 786 786 792 799 802 805 808
807 804 800 798 795 792 789 786 784 783 783 783 782 780 774 779 781 781 781 781 781 780 775 775 773 768 765 775 773 778 783 788 795 791 793 784 791 788 780 786 794 797 800 803 807
807 803 799 796 793 790 787 785 783 783 783 783 781 781 777 781 782 782 782 782 782 781 780 778 775 767 767 768 773 778 773 789 791 791 784 785 797 789 781 785 792 794 798 802 805
807 802 799 796 793 789 786 785 784 783 783 782 782 781 779 780 780 781 781 778 779 780 779 777 772 769 770 775 778 772 798 796 793 781 788 786 798 784 781 784 788 792 795 799 802
805 802 798 796 792 788 786 786 785 784 783 783 782 780 778 778 779 781 781 780 777 776 776 773 771 777 780 780 798 793 786 794 794 785 789 789 785 779 781 780 784 787 791 795 797
804 800 797 795 792 789 787 787 784 783 779 780 776 776 776 779 780 779 780 778 776 776 784 777 782 787 781 783 785 785 786 791 787 786 793 781 781 773 775 777 780 783 787 790 792
803 799 795 794 792 790 788 783 786 788 783 780 780 778 780 779 780 778 780 780 780 785 779 786 788 781 784 783 784 784 790 788 780 778 784 775 774 763 764 774 774 778 781 784 787
801 797 795 793 792 791 789 789 788 787 777 782 779 777 778 777 781 781 778 778 781 787 784 784 781 786 788 788 792 785 792 789 796 781 769 773 772 768 765 765 768 769 771 775 779
799 796 793 792 794 791 788 789 787 788 785 792 781 781 778 776 787 782 781 780 785 789 784 786 790 794 792 793 794 794 787 791 792 794 795 773 794 770 760 766 765 764 765 769 774
797 794 792 792 792 788 791 789 788 787 808 789 783 782 778 781 782 785 783 775 789 793 793 806 798 797 798 798 794 792 790 793 791 793 788 783 794 766 762 765 758 756 758 762 766
794 791 790 791 791 790 789 789 789 795 813 795 784 786 786 781 787 783 782 780 783 789 787 798 795 796 798 795 795 792 792 788 786 788 802 781 780 775 759 760 753 753 752 756 759
791 788 788 789 785 789 789 785 796 798 788 797 792 784 786 792 796 790 793 796 797 809 807 802 803 798 797 799 792 792 791 804 805 800 797 757 773 770 751 755 768 767 763 760 755
788 786 786 787 788 788 786 786 803 785 787 784 787 788 796 794 803 800 801 804 800 799 804 809 821 806 803 806 809 803 800 801 817 797 782 782 793 771 751 762 765 764 765 765 765
786 786 787 788 787 787 782 792 785 784 780 788 790 796 804 801 800 804 807 809 810 807 813 812 813 806 806 804 805 804 811 796 807 789 806 782 768 762 757 766 770 768 769 771 769
786 784 784 786 787 785 782 785 782 776 776 779 793 794 805 803 804 803 811 814 815 811 806 813 822 808 807 805 804 806 801 811 803 823 817 780 788 781 766 780 775 773 771 771 769
786 777 785 785 786 779 783 777 782 777 776 783 792 799 796 805 801 806 812 817 814 814 810 810 818 814 813 811 806 806 809 807 797 796 804 800 781 763 777 777 777 771 768 767 768
783 777 784 785 782 779 779 778 787 781 779 784 785 790 796 801 806 809 815 812 815 814 818 817 813 820 810 804 810 810 802 803 805 806 800 801 793 755 770 771 772 771 769 767 768
782 777 783 783 780 778 782 783 777 782 782 785 793 791 795 804 816 811 813 817 817 817 820 817 817 820 813 811 812 812 806 802 803 802 809 808 784 762 765 768 773 776 770 768 769
786 781 781 780 777 771 779 781 789 784 788 786 793 793 800 807 807 816 815 819 820 818 831 827 817 822 817 807 807 814 813 808 809 812 800 787 782 769 769 774 775 776 774 770 769
791 790 794 788 783 778 777 778 783 792 787 787 796 793 799 811 811 813 811 818 821 828 825 821 828 819 814 812 810 811 811 807 809 807 810 789 786 781 778 780 777 776 774 771 769
795 789 793 795 791 783 792 784 782 790 788 794 794 794 798 806 806 813 811 816 816 822 823 819 830 827 826 813 813 815 808 806 805 803 798 794 788 775 772 770 774 776 775 773 767
805 801 799 806 793 786 788 788 787 786 792 788 789 797 803 804 804 805 808 810 815 821 822 824 826 829 824 813 818 821 802 799 794 790 791 794 781 775 780 780 778 775 775 772 766